Location: Fernhill
(41.0167°S, 175.6333°E)
Time: 15:55:53
(UTC+00:00)

Meteor 2-6 Rocket - Pass Details

Date: 21 February 2026
Orbit: 804 x 913 km, 81.3° (Epoch: 7 March)

Event Time Altitude Azimuth Distance (km) Brightness Sun altitude
Exits shadow 10:32:00 49° 275° (W) 1,138 4.9 -31.7°
Maximum altitude 10:32:32 51° 256° (WSW) 1,120 4.9 -31.7°
Drops below altitude 10° 10:38:21 10° 180° (S) 2,616 7.4 -32.3°
Sets 10:40:57 0° 175° (S) 3,574 8.1 -32.6°
